Tracking 31027 objects as of 19-Jul-2025
HD Live streaming from Space Station
objects crossing your sky now

FENGYUN 1C DEB

Track FENGYUN 1C DEB now!
10-day predictions


NORAD ID: 37057
Int'l Code: 1999-025EER
Perigee: 707.7 km
Apogee: 1,123.1 km
Inclination: 98.9 °
Period: 103.2 minutes
Semi major axis: 7286 km
RCS: 0.0122 m2 (small)
Launch date: May 10, 1999
Source: People's Republic of China (PRC)
Launch site: Taiyaun Space Center, China (TSC)

Note: This is SATELLITE DEBRIS
Your satellite tracking list
PRISMA
Track 1 satellite(s)




NASA's NSSDC Master Catalog

Two Line Element Set (TLE):
1 37057U 99025EER 25195.89088021  .00000223  00000-0  13882-3 0  9997
2 37057  98.9307 215.0635 0285076 194.8127 164.4555 13.95839630614932
Source of the keplerian elements: AFSPC